GEFSNE_prec_meanprecacc_108.txt.gz
Total_Precipitation_Accumulation
1.49 1.58 1.51 1.47 1.50 1.50 1.61 1.69 1.62 1.43 1.25 1.17 1.07 0.94 0.91 0.89 0.87 0.86 0.80 0.68 0.55 0.47 0.43 0.42 0.43 0.43 0.48 0.58 0.73 0.85 0.93 1.00 1.06 1.09 1.16 1.25 1.36 1.51
1.29 1.35 1.41 1.44 1.58 1.54 1.60 1.68 1.72 1.62 1.32 1.26 1.17 0.97 1.02 0.80 0.78 0.81 0.80 0.69 0.52 0.43 0.39 0.39 0.41 0.43 0.44 0.45 0.52 0.63 0.74 0.83 0.92 1.00 1.01 1.02 1.04 1.12
0.97 1.01 1.06 1.16 1.29 1.33 1.41 1.48 1.60 1.65 1.38 1.35 1.48 1.35 1.31 1.09 0.92 0.85 0.71 0.66 0.59 0.47 0.39 0.36 0.36 0.39 0.45 0.46 0.44 0.47 0.55 0.62 0.68 0.80 0.94 1.04 1.07 1.12
0.82 0.84 0.81 0.90 1.06 1.12 1.21 1.32 1.49 1.68 1.53 1.45 1.60 1.65 1.56 1.36 1.23 1.05 0.79 0.63 0.66 0.61 0.46 0.39 0.35 0.36 0.41 0.45 0.43 0.42 0.45 0.48 0.52 0.57 0.69 0.82 0.94 1.05
0.60 0.59 0.60 0.67 0.79 0.92 1.06 1.12 1.24 1.56 1.63 1.50 1.55 1.79 1.78 1.61 1.56 1.30 1.11 1.00 0.75 0.69 0.56 0.45 0.42 0.40 0.42 0.47 0.46 0.43 0.41 0.42 0.45 0.50 0.59 0.71 0.81 0.88
0.50 0.43 0.42 0.51 0.64 0.75 0.86 0.97 1.08 1.25 1.45 1.52 1.53 1.74 1.84 1.74 1.83 1.63 1.39 1.23 1.01 0.80 0.71 0.53 0.46 0.48 0.47 0.49 0.51 0.51 0.49 0.47 0.49 0.55 0.60 0.67 0.76 0.84
0.49 0.40 0.35 0.39 0.46 0.57 0.63 0.75 0.90 1.05 1.16 1.33 1.46 1.62 1.84 1.83 1.72 1.70 1.54 1.38 1.29 1.17 1.13 0.81 0.54 0.47 0.46 0.48 0.53 0.60 0.65 0.65 0.65 0.69 0.76 0.81 0.86 0.89
0.47 0.43 0.37 0.33 0.33 0.38 0.44 0.51 0.60 0.71 0.88 1.09 1.22 1.37 1.59 1.79 1.76 1.80 1.72 1.49 1.38 1.31 1.36 1.39 1.06 0.80 0.64 0.46 0.45 0.53 0.66 0.76 0.80 0.84 0.91 1.02 1.12 1.10
0.43 0.42 0.32 0.27 0.29 0.29 0.30 0.34 0.42 0.43 0.51 0.73 0.89 0.95 1.11 1.39 1.68 1.82 1.88 1.74 1.56 1.54 1.54 1.67 1.75 1.49 1.02 0.71 0.60 0.52 0.59 0.71 0.78 0.85 0.93 0.98 1.14 1.30
0.41 0.39 0.36 0.32 0.32 0.34 0.37 0.37 0.34 0.32 0.33 0.38 0.48 0.67 0.82 1.04 1.39 1.61 1.84 2.02 1.92 1.85 1.78 1.88 1.99 2.19 1.75 1.19 0.95 0.73 0.68 0.72 0.79 0.84 0.90 0.98 1.06 1.15
0.42 0.40 0.38 0.36 0.32 0.27 0.34 0.38 0.34 0.31 0.29 0.32 0.38 0.52 0.71 0.84 1.12 1.45 1.69 1.80 1.88 1.97 1.94 2.00 2.03 2.16 2.49 2.08 1.40 0.99 0.77 0.70 0.74 0.79 0.84 0.95 1.01 0.99
0.53 0.52 0.40 0.32 0.30 0.26 0.28 0.34 0.32 0.30 0.31 0.30 0.35 0.41 0.50 0.64 0.84 1.11 1.30 1.45 1.50 1.66 1.62 1.54 1.60 1.72 2.19 2.52 2.18 1.54 1.08 0.87 0.74 0.72 0.73 0.82 0.92 0.85
0.56 0.57 0.51 0.36 0.26 0.23 0.25 0.31 0.30 0.33 0.41 0.42 0.42 0.46 0.55 0.61 0.67 0.87 1.09 1.26 1.33 1.23 1.11 1.15 1.34 1.42 1.49 1.83 2.09 2.05 1.65 1.30 1.07 0.90 0.83 0.81 0.83 0.84
0.66 0.64 0.61 0.45 0.32 0.24 0.22 0.25 0.27 0.29 0.38 0.43 0.44 0.45 0.51 0.56 0.62 0.76 0.94 1.09 1.20 1.24 1.16 1.15 1.29 1.33 1.38 1.49 1.63 1.77 1.82 1.67 1.48 1.33 1.22 1.15 1.00 0.95
0.73 0.72 0.69 0.52 0.41 0.33 0.27 0.27 0.29 0.32 0.36 0.41 0.41 0.41 0.46 0.54 0.64 0.79 0.93 1.05 1.12 1.12 1.11 1.10 1.10 1.09 1.13 1.25 1.32 1.31 1.41 1.55 1.55 1.50 1.47 1.41 1.29 1.16
0.76 0.70 0.66 0.61 0.50 0.47 0.41 0.35 0.33 0.38 0.40 0.42 0.45 0.48 0.54 0.63 0.71 0.75 0.85 0.95 1.08 1.11 1.06 1.05 1.02 1.02 0.97 0.90 0.88 0.85 0.86 0.99 1.18 1.27 1.40 1.56 1.57 1.51
0.85 0.81 0.78 0.73 0.65 0.63 0.61 0.55 0.49 0.50 0.50 0.52 0.56 0.56 0.57 0.63 0.72 0.76 0.81 0.81 0.85 0.95 1.00 1.02 1.05 1.05 0.99 0.90 0.84 0.77 0.73 0.69 0.73 0.91 1.13 1.42 1.49 1.34
0.78 0.84 0.83 0.79 0.72 0.70 0.71 0.68 0.64 0.62 0.62 0.62 0.62 0.61 0.58 0.60 0.68 0.78 0.84 0.80 0.76 0.79 0.88 0.92 1.03 1.15 1.19 1.08 0.83 0.71 0.71 0.69 0.68 0.74 0.81 0.91 1.00 0.91
0.73 0.82 0.78 0.78 0.77 0.77 0.77 0.73 0.70 0.70 0.72 0.71 0.67 0.65 0.63 0.62 0.65 0.74 0.82 0.81 0.77 0.77 0.86 0.93 0.94 0.95 0.94 0.91 0.82 0.59 0.56 0.56 0.63 0.75 0.77 0.70 0.65 0.57
0.72 0.77 0.77 0.77 0.78 0.80 0.80 0.75 0.76 0.79 0.79 0.77 0.72 0.68 0.65 0.63 0.64 0.67 0.73 0.76 0.74 0.74 0.81 0.88 0.86 0.79 0.73 0.70 0.69 0.64 0.49 0.51 0.51 0.58 0.67 0.65 0.58 0.45
0.73 0.76 0.75 0.74 0.76 0.80 0.80 0.77 0.76 0.76 0.73 0.75 0.74 0.70 0.64 0.59 0.61 0.62 0.66 0.73 0.75 0.72 0.70 0.71 0.72 0.79 0.85 0.93 0.92 0.86 0.70 0.55 0.55 0.49 0.54 0.61 0.64 0.59
0.62 0.67 0.70 0.71 0.75 0.77 0.74 0.71 0.72 0.72 0.71 0.71 0.70 0.69 0.63 0.54 0.54 0.58 0.59 0.63 0.66 0.64 0.64 0.67 0.77 0.86 0.89 0.92 0.93 0.89 0.86 0.79 0.72 0.71 0.62 0.52 0.47 0.49
0.59 0.63 0.63 0.63 0.67 0.69 0.64 0.60 0.64 0.67 0.66 0.67 0.66 0.64 0.59 0.53 0.49 0.53 0.57 0.60 0.65 0.68 0.70 0.74 0.77 0.81 0.84 0.86 0.92 0.95 0.90 0.86 0.80 0.76 0.69 0.53 0.38 0.32

GEFSNE_prec_meanprecacc_114.txt.gz
Total_Precipitation_Accumulation
1.49 1.58 1.51 1.47 1.50 1.50 1.61 1.69 1.63 1.43 1.25 1.17 1.07 0.94 0.91 0.89 0.87 0.86 0.82 0.72 0.62 0.57 0.51 0.48 0.50 0.51 0.57 0.70 0.86 1.00 1.09 1.15 1.19 1.21 1.26 1.32 1.41 1.55
1.29 1.35 1.41 1.44 1.58 1.54 1.60 1.68 1.72 1.62 1.32 1.26 1.17 0.97 1.02 0.80 0.78 0.81 0.81 0.72 0.56 0.50 0.47 0.45 0.46 0.49 0.50 0.53 0.61 0.73 0.85 0.94 1.03 1.10 1.11 1.10 1.10 1.16
0.97 1.01 1.06 1.16 1.29 1.33 1.41 1.48 1.60 1.65 1.38 1.35 1.48 1.35 1.32 1.09 0.92 0.85 0.71 0.67 0.60 0.50 0.44 0.42 0.40 0.43 0.50 0.51 0.51 0.56 0.64 0.72 0.78 0.88 1.03 1.12 1.15 1.18
0.82 0.84 0.81 0.90 1.06 1.12 1.21 1.32 1.49 1.68 1.53 1.45 1.60 1.65 1.56 1.36 1.23 1.05 0.79 0.63 0.66 0.62 0.48 0.42 0.39 0.39 0.45 0.49 0.47 0.48 0.52 0.56 0.59 0.64 0.76 0.88 1.00 1.11
0.60 0.59 0.60 0.67 0.79 0.92 1.06 1.12 1.24 1.56 1.63 1.50 1.55 1.79 1.78 1.61 1.56 1.30 1.11 1.00 0.75 0.69 0.56 0.46 0.43 0.42 0.45 0.50 0.49 0.47 0.47 0.48 0.50 0.56 0.66 0.78 0.87 0.93
0.50 0.43 0.42 0.51 0.64 0.75 0.86 0.97 1.08 1.25 1.45 1.52 1.53 1.74 1.84 1.74 1.84 1.63 1.40 1.23 1.01 0.80 0.71 0.53 0.47 0.48 0.48 0.51 0.53 0.53 0.53 0.53 0.54 0.61 0.67 0.73 0.83 0.91
0.49 0.40 0.35 0.39 0.46 0.57 0.63 0.75 0.90 1.05 1.16 1.34 1.46 1.62 1.84 1.84 1.72 1.70 1.54 1.38 1.29 1.17 1.13 0.81 0.55 0.47 0.47 0.49 0.55 0.62 0.68 0.69 0.69 0.74 0.82 0.87 0.91 0.96
0.47 0.43 0.37 0.33 0.33 0.38 0.44 0.51 0.60 0.71 0.88 1.09 1.22 1.37 1.60 1.79 1.76 1.80 1.72 1.49 1.38 1.31 1.36 1.39 1.06 0.80 0.64 0.47 0.46 0.55 0.69 0.80 0.84 0.88 0.94 1.06 1.17 1.15
0.43 0.42 0.32 0.27 0.29 0.29 0.30 0.34 0.42 0.43 0.51 0.74 0.89 0.96 1.11 1.39 1.68 1.82 1.88 1.74 1.56 1.54 1.54 1.67 1.76 1.49 1.02 0.71 0.61 0.53 0.61 0.75 0.83 0.90 0.97 1.02 1.18 1.34
0.41 0.39 0.36 0.32 0.32 0.34 0.37 0.37 0.34 0.32 0.33 0.38 0.49 0.68 0.82 1.04 1.39 1.61 1.84 2.02 1.92 1.85 1.78 1.88 1.99 2.19 1.75 1.19 0.96 0.74 0.70 0.74 0.83 0.89 0.95 1.04 1.11 1.20
0.42 0.40 0.38 0.36 0.32 0.27 0.34 0.38 0.34 0.32 0.29 0.32 0.38 0.52 0.71 0.84 1.12 1.46 1.69 1.80 1.88 1.97 1.94 2.00 2.03 2.16 2.49 2.08 1.40 1.00 0.79 0.72 0.77 0.84 0.89 1.01 1.08 1.07
0.53 0.52 0.40 0.32 0.30 0.26 0.28 0.34 0.33 0.30 0.31 0.31 0.35 0.41 0.50 0.64 0.84 1.11 1.30 1.45 1.51 1.66 1.63 1.54 1.60 1.72 2.20 2.53 2.19 1.55 1.09 0.89 0.78 0.76 0.78 0.89 1.00 0.92
0.56 0.57 0.51 0.37 0.26 0.23 0.26 0.31 0.30 0.34 0.42 0.42 0.42 0.47 0.55 0.61 0.67 0.87 1.09 1.27 1.33 1.23 1.11 1.16 1.34 1.42 1.50 1.84 2.10 2.06 1.67 1.32 1.10 0.95 0.88 0.87 0.91 0.91
0.66 0.64 0.61 0.46 0.33 0.24 0.22 0.25 0.28 0.29 0.38 0.44 0.44 0.46 0.52 0.56 0.62 0.77 0.94 1.09 1.21 1.25 1.17 1.15 1.30 1.34 1.39 1.50 1.64 1.79 1.85 1.70 1.52 1.38 1.28 1.23 1.09 1.04
0.74 0.72 0.69 0.52 0.41 0.33 0.28 0.28 0.30 0.33 0.38 0.42 0.42 0.42 0.46 0.54 0.64 0.79 0.93 1.05 1.12 1.13 1.12 1.10 1.11 1.10 1.14 1.27 1.33 1.33 1.44 1.59 1.61 1.57 1.55 1.51 1.39 1.26
0.76 0.71 0.67 0.61 0.51 0.47 0.42 0.36 0.33 0.39 0.41 0.43 0.46 0.48 0.54 0.64 0.71 0.75 0.85 0.95 1.08 1.11 1.06 1.05 1.03 1.03 0.99 0.92 0.90 0.87 0.89 1.04 1.24 1.35 1.48 1.66 1.70 1.64
0.85 0.81 0.78 0.73 0.66 0.63 0.61 0.55 0.49 0.50 0.50 0.53 0.57 0.57 0.57 0.64 0.73 0.77 0.82 0.82 0.86 0.96 1.01 1.03 1.06 1.06 1.03 0.96 0.89 0.81 0.77 0.73 0.78 0.99 1.21 1.52 1.63 1.48
0.78 0.84 0.83 0.79 0.73 0.71 0.72 0.69 0.65 0.63 0.62 0.62 0.62 0.62 0.59 0.61 0.69 0.79 0.85 0.81 0.77 0.80 0.90 0.94 1.05 1.18 1.24 1.16 0.90 0.77 0.77 0.74 0.73 0.79 0.89 1.00 1.11 1.04
0.73 0.82 0.78 0.78 0.78 0.78 0.77 0.73 0.71 0.70 0.72 0.71 0.67 0.66 0.64 0.65 0.67 0.75 0.84 0.84 0.79 0.79 0.89 0.95 0.97 0.98 0.99 0.98 0.89 0.65 0.62 0.63 0.69 0.81 0.84 0.77 0.74 0.68
0.72 0.77 0.77 0.77 0.78 0.81 0.81 0.76 0.76 0.79 0.79 0.77 0.73 0.69 0.66 0.66 0.67 0.70 0.76 0.80 0.77 0.77 0.84 0.92 0.89 0.83 0.77 0.74 0.74 0.69 0.55 0.58 0.58 0.66 0.75 0.74 0.68 0.58
0.74 0.77 0.76 0.75 0.77 0.81 0.81 0.77 0.77 0.76 0.74 0.75 0.74 0.71 0.66 0.62 0.66 0.68 0.73 0.79 0.80 0.76 0.74 0.75 0.76 0.85 0.90 0.99 0.98 0.93 0.77 0.64 0.63 0.57 0.62 0.71 0.75 0.70
0.63 0.68 0.71 0.72 0.76 0.78 0.75 0.71 0.73 0.73 0.72 0.72 0.71 0.70 0.66 0.59 0.60 0.65 0.68 0.71 0.71 0.69 0.68 0.72 0.82 0.92 0.97 0.98 0.99 0.98 0.96 0.89 0.83 0.84 0.77 0.64 0.57 0.58
0.61 0.65 0.65 0.64 0.68 0.70 0.65 0.61 0.65 0.68 0.67 0.68 0.67 0.65 0.62 0.58 0.56 0.61 0.66 0.69 0.72 0.74 0.75 0.80 0.83 0.87 0.91 0.93 1.01 1.06 1.01 0.96 0.91 0.89 0.85 0.70 0.51 0.43

GEFSNE_prec_meanprecacc_120.txt.gz
Total_Precipitation_Accumulation
1.49 1.58 1.51 1.48 1.50 1.50 1.61 1.70 1.63 1.44 1.25 1.17 1.07 0.95 0.92 0.89 0.88 0.86 0.83 0.74 0.65 0.60 0.55 0.53 0.54 0.55 0.61 0.76 0.94 1.11 1.22 1.29 1.33 1.35 1.40 1.45 1.52 1.63
1.29 1.35 1.41 1.45 1.58 1.54 1.60 1.68 1.73 1.63 1.33 1.26 1.17 0.97 1.02 0.80 0.78 0.81 0.81 0.72 0.57 0.51 0.49 0.49 0.50 0.53 0.54 0.57 0.66 0.79 0.94 1.05 1.14 1.21 1.21 1.20 1.19 1.24
0.97 1.01 1.06 1.16 1.29 1.33 1.41 1.49 1.61 1.66 1.39 1.35 1.48 1.35 1.32 1.09 0.93 0.86 0.72 0.67 0.61 0.51 0.45 0.43 0.44 0.48 0.54 0.55 0.54 0.59 0.69 0.78 0.86 0.97 1.11 1.20 1.23 1.25
0.82 0.84 0.82 0.91 1.06 1.13 1.21 1.32 1.49 1.68 1.54 1.46 1.60 1.65 1.56 1.36 1.23 1.05 0.79 0.64 0.67 0.63 0.48 0.42 0.41 0.44 0.51 0.55 0.52 0.52 0.55 0.60 0.64 0.70 0.82 0.94 1.06 1.17
0.60 0.59 0.60 0.68 0.80 0.93 1.06 1.13 1.25 1.57 1.64 1.51 1.55 1.80 1.79 1.61 1.56 1.30 1.11 1.01 0.75 0.69 0.56 0.46 0.43 0.43 0.48 0.56 0.57 0.54 0.51 0.52 0.54 0.60 0.70 0.84 0.92 0.99
0.50 0.43 0.42 0.52 0.64 0.76 0.86 0.97 1.09 1.26 1.46 1.53 1.54 1.75 1.85 1.75 1.84 1.64 1.40 1.24 1.01 0.80 0.71 0.53 0.47 0.49 0.49 0.52 0.57 0.60 0.59 0.57 0.58 0.66 0.72 0.77 0.88 0.96
0.50 0.40 0.36 0.39 0.46 0.57 0.63 0.75 0.91 1.06 1.18 1.35 1.47 1.63 1.85 1.84 1.73 1.71 1.55 1.39 1.29 1.18 1.14 0.81 0.55 0.47 0.47 0.50 0.55 0.64 0.70 0.72 0.73 0.78 0.87 0.93 0.96 1.00
0.47 0.43 0.37 0.33 0.33 0.38 0.44 0.51 0.60 0.72 0.90 1.11 1.24 1.38 1.61 1.81 1.78 1.81 1.73 1.50 1.39 1.32 1.38 1.40 1.07 0.81 0.65 0.47 0.46 0.55 0.69 0.81 0.86 0.91 0.98 1.10 1.21 1.19
0.43 0.43 0.32 0.27 0.29 0.29 0.30 0.35 0.42 0.43 0.52 0.74 0.91 0.97 1.13 1.41 1.71 1.85 1.91 1.76 1.58 1.55 1.55 1.68 1.76 1.50 1.03 0.71 0.61 0.53 0.61 0.75 0.83 0.91 1.00 1.05 1.21 1.38
0.41 0.39 0.36 0.32 0.32 0.34 0.37 0.38 0.35 0.33 0.33 0.39 0.50 0.69 0.83 1.06 1.42 1.64 1.87 2.05 1.94 1.86 1.79 1.89 1.99 2.20 1.76 1.20 0.96 0.74 0.70 0.74 0.83 0.89 0.96 1.05 1.14 1.24
0.42 0.40 0.38 0.36 0.32 0.27 0.34 0.38 0.34 0.32 0.30 0.32 0.38 0.52 0.71 0.84 1.13 1.46 1.71 1.83 1.90 1.98 1.96 2.02 2.03 2.16 2.49 2.08 1.40 1.00 0.79 0.72 0.77 0.84 0.90 1.01 1.09 1.09
0.53 0.53 0.40 0.32 0.30 0.26 0.29 0.34 0.33 0.31 0.33 0.32 0.36 0.42 0.51 0.65 0.85 1.11 1.32 1.48 1.53 1.68 1.64 1.56 1.61 1.73 2.20 2.53 2.19 1.56 1.10 0.89 0.78 0.76 0.79 0.89 1.01 0.93
0.56 0.57 0.52 0.37 0.26 0.23 0.26 0.32 0.30 0.34 0.43 0.43 0.44 0.48 0.57 0.63 0.69 0.88 1.11 1.29 1.36 1.25 1.13 1.19 1.37 1.45 1.52 1.85 2.11 2.07 1.68 1.33 1.11 0.96 0.89 0.87 0.91 0.92
0.66 0.64 0.61 0.46 0.33 0.25 0.22 0.25 0.28 0.30 0.39 0.44 0.45 0.47 0.53 0.57 0.63 0.77 0.96 1.11 1.23 1.27 1.19 1.19 1.33 1.37 1.43 1.53 1.66 1.80 1.86 1.72 1.53 1.39 1.29 1.24 1.10 1.06
0.74 0.72 0.69 0.52 0.41 0.33 0.28 0.28 0.30 0.33 0.38 0.43 0.43 0.43 0.47 0.55 0.64 0.80 0.94 1.07 1.14 1.14 1.13 1.12 1.14 1.13 1.18 1.30 1.35 1.36 1.47 1.61 1.63 1.58 1.57 1.52 1.40 1.28
0.76 0.71 0.67 0.61 0.51 0.47 0.42 0.36 0.33 0.39 0.42 0.44 0.46 0.49 0.56 0.65 0.72 0.76 0.86 0.97 1.10 1.12 1.07 1.06 1.05 1.06 1.03 0.95 0.93 0.89 0.92 1.07 1.26 1.37 1.51 1.69 1.72 1.67
0.86 0.81 0.78 0.73 0.66 0.64 0.62 0.57 0.51 0.52 0.51 0.54 0.58 0.58 0.59 0.65 0.75 0.79 0.84 0.84 0.89 0.97 1.03 1.06 1.10 1.11 1.07 1.00 0.93 0.84 0.80 0.76 0.81 1.02 1.25 1.55 1.65 1.52
0.78 0.84 0.83 0.80 0.74 0.72 0.73 0.71 0.67 0.65 0.65 0.64 0.64 0.64 0.62 0.63 0.72 0.83 0.89 0.84 0.80 0.83 0.93 0.98 1.12 1.25 1.29 1.20 0.93 0.79 0.80 0.77 0.76 0.84 0.93 1.04 1.14 1.07
0.73 0.82 0.79 0.79 0.79 0.79 0.79 0.75 0.73 0.73 0.75 0.75 0.70 0.69 0.68 0.68 0.71 0.79 0.88 0.88 0.82 0.83 0.93 1.01 1.05 1.06 1.05 1.01 0.92 0.68 0.65 0.67 0.74 0.85 0.88 0.81 0.76 0.70
0.73 0.78 0.78 0.78 0.80 0.83 0.83 0.78 0.79 0.82 0.83 0.81 0.77 0.74 0.73 0.72 0.74 0.76 0.81 0.85 0.82 0.82 0.90 0.98 0.96 0.90 0.83 0.79 0.79 0.75 0.59 0.62 0.64 0.71 0.79 0.79 0.72 0.62
0.75 0.78 0.78 0.77 0.79 0.83 0.83 0.81 0.81 0.80 0.78 0.79 0.78 0.76 0.71 0.70 0.75 0.77 0.81 0.86 0.85 0.81 0.78 0.80 0.83 0.90 0.97 1.07 1.04 0.97 0.83 0.68 0.67 0.63 0.69 0.78 0.81 0.76
0.65 0.70 0.73 0.75 0.78 0.81 0.78 0.76 0.78 0.78 0.77 0.76 0.75 0.75 0.72 0.66 0.67 0.73 0.77 0.79 0.78 0.74 0.73 0.78 0.90 1.02 1.05 1.06 1.05 1.02 1.03 0.98 0.90 0.88 0.81 0.70 0.63 0.64
0.63 0.68 0.67 0.68 0.72 0.75 0.70 0.67 0.70 0.73 0.73 0.74 0.74 0.72 0.70 0.67 0.64 0.70 0.76 0.79 0.80 0.82 0.84 0.90 0.93 0.97 1.01 1.02 1.08 1.12 1.08 1.05 1.02 0.99 0.92 0.75 0.54 0.46

GEFSNE_prec_meanprecacc_126.txt.gz
Total_Precipitation_Accumulation
1.49 1.58 1.51 1.48 1.50 1.50 1.61 1.70 1.64 1.44 1.26 1.18 1.07 0.95 0.92 0.90 0.88 0.86 0.84 0.74 0.65 0.60 0.56 0.54 0.57 0.60 0.69 0.84 1.00 1.16 1.26 1.34 1.39 1.43 1.50 1.58 1.66 1.77
1.29 1.36 1.42 1.45 1.58 1.54 1.60 1.68 1.73 1.63 1.34 1.26 1.18 0.97 1.02 0.80 0.78 0.81 0.82 0.72 0.57 0.51 0.49 0.49 0.51 0.54 0.56 0.61 0.71 0.84 0.98 1.08 1.18 1.26 1.28 1.28 1.29 1.35
0.97 1.02 1.07 1.16 1.30 1.34 1.42 1.49 1.61 1.66 1.40 1.35 1.48 1.36 1.32 1.10 0.93 0.86 0.72 0.68 0.61 0.51 0.45 0.43 0.44 0.48 0.54 0.56 0.57 0.62 0.73 0.82 0.89 1.01 1.16 1.26 1.30 1.33
0.83 0.85 0.82 0.91 1.07 1.13 1.22 1.33 1.50 1.69 1.54 1.46 1.61 1.65 1.56 1.37 1.24 1.06 0.79 0.64 0.67 0.63 0.48 0.42 0.41 0.44 0.51 0.55 0.52 0.52 0.57 0.62 0.66 0.73 0.86 0.99 1.11 1.22
0.61 0.60 0.60 0.68 0.81 0.93 1.08 1.14 1.26 1.57 1.64 1.52 1.56 1.80 1.79 1.61 1.57 1.31 1.12 1.01 0.75 0.69 0.56 0.46 0.43 0.43 0.48 0.56 0.57 0.54 0.52 0.53 0.55 0.61 0.73 0.86 0.96 1.02
0.50 0.43 0.42 0.52 0.65 0.77 0.88 0.99 1.10 1.27 1.47 1.54 1.54 1.76 1.86 1.76 1.85 1.65 1.41 1.25 1.02 0.80 0.71 0.53 0.47 0.49 0.49 0.52 0.57 0.60 0.61 0.60 0.61 0.68 0.74 0.80 0.90 0.99
0.50 0.40 0.36 0.39 0.46 0.57 0.63 0.76 0.91 1.06 1.18 1.36 1.48 1.64 1.86 1.87 1.75 1.73 1.56 1.40 1.30 1.18 1.14 0.82 0.55 0.48 0.47 0.50 0.56 0.64 0.71 0.74 0.76 0.83 0.92 0.98 1.01 1.05
0.47 0.43 0.38 0.33 0.33 0.38 0.44 0.51 0.60 0.72 0.90 1.11 1.25 1.39 1.62 1.82 1.80 1.83 1.74 1.51 1.40 1.33 1.39 1.40 1.08 0.82 0.66 0.47 0.47 0.56 0.70 0.81 0.86 0.92 1.00 1.14 1.27 1.25
0.43 0.43 0.33 0.27 0.29 0.29 0.31 0.35 0.42 0.43 0.52 0.74 0.91 0.97 1.14 1.42 1.72 1.86 1.93 1.78 1.59 1.56 1.57 1.69 1.77 1.51 1.03 0.71 0.61 0.54 0.62 0.75 0.83 0.91 1.00 1.05 1.22 1.39
0.41 0.39 0.36 0.32 0.32 0.35 0.38 0.38 0.35 0.33 0.34 0.39 0.50 0.69 0.84 1.08 1.44 1.65 1.89 2.06 1.95 1.86 1.81 1.90 1.99 2.20 1.76 1.20 0.96 0.75 0.70 0.75 0.83 0.89 0.96 1.06 1.14 1.24
0.42 0.40 0.38 0.37 0.32 0.27 0.34 0.39 0.34 0.33 0.30 0.33 0.38 0.53 0.71 0.85 1.13 1.47 1.72 1.83 1.91 1.99 1.98 2.04 2.04 2.17 2.50 2.09 1.41 1.00 0.79 0.72 0.77 0.84 0.90 1.01 1.09 1.09
0.54 0.53 0.40 0.32 0.30 0.26 0.29 0.35 0.34 0.32 0.34 0.33 0.37 0.43 0.51 0.65 0.85 1.11 1.32 1.49 1.54 1.69 1.65 1.59 1.63 1.76 2.22 2.53 2.19 1.57 1.11 0.90 0.78 0.76 0.79 0.89 1.01 0.93
0.56 0.57 0.52 0.37 0.27 0.23 0.26 0.32 0.31 0.35 0.44 0.44 0.45 0.50 0.58 0.64 0.71 0.90 1.13 1.31 1.37 1.26 1.14 1.22 1.40 1.48 1.56 1.87 2.12 2.08 1.70 1.35 1.12 0.96 0.89 0.87 0.92 0.92
0.66 0.64 0.62 0.46 0.33 0.25 0.22 0.25 0.28 0.30 0.39 0.45 0.45 0.47 0.54 0.59 0.64 0.79 0.99 1.15 1.26 1.29 1.21 1.23 1.37 1.40 1.46 1.56 1.68 1.81 1.88 1.74 1.56 1.42 1.31 1.25 1.11 1.06
0.74 0.72 0.69 0.52 0.41 0.34 0.28 0.28 0.30 0.33 0.38 0.43 0.43 0.44 0.49 0.56 0.66 0.82 0.97 1.11 1.17 1.16 1.14 1.16 1.17 1.16 1.22 1.33 1.37 1.37 1.49 1.64 1.66 1.62 1.60 1.56 1.43 1.29
0.77 0.71 0.67 0.61 0.51 0.48 0.42 0.36 0.34 0.40 0.42 0.45 0.48 0.51 0.57 0.67 0.75 0.79 0.90 1.01 1.15 1.14 1.10 1.10 1.10 1.12 1.07 0.99 0.96 0.91 0.94 1.09 1.29 1.41 1.56 1.73 1.77 1.71
0.86 0.82 0.79 0.74 0.67 0.65 0.63 0.59 0.54 0.56 0.55 0.57 0.61 0.63 0.63 0.70 0.78 0.83 0.90 0.91 0.95 1.01 1.06 1.11 1.17 1.18 1.13 1.05 0.97 0.86 0.82 0.78 0.83 1.06 1.32 1.60 1.69 1.56
0.79 0.85 0.84 0.82 0.76 0.74 0.76 0.73 0.71 0.71 0.71 0.72 0.72 0.71 0.69 0.70 0.79 0.89 0.97 0.94 0.88 0.90 0.98 1.04 1.20 1.34 1.37 1.25 0.96 0.82 0.82 0.79 0.78 0.88 1.00 1.09 1.17 1.11
0.74 0.83 0.79 0.80 0.80 0.80 0.81 0.78 0.76 0.76 0.81 0.82 0.78 0.78 0.77 0.78 0.80 0.89 0.98 0.98 0.92 0.91 1.01 1.11 1.16 1.19 1.16 1.07 0.96 0.71 0.68 0.70 0.78 0.90 0.94 0.87 0.80 0.74
0.73 0.78 0.78 0.79 0.81 0.84 0.85 0.82 0.83 0.86 0.89 0.89 0.86 0.84 0.84 0.83 0.85 0.87 0.93 0.96 0.92 0.92 0.99 1.07 1.06 1.00 0.93 0.86 0.84 0.79 0.62 0.65 0.69 0.76 0.85 0.85 0.77 0.67
0.76 0.79 0.80 0.79 0.82 0.86 0.87 0.86 0.88 0.87 0.85 0.88 0.88 0.87 0.83 0.82 0.87 0.88 0.93 0.97 0.94 0.90 0.86 0.86 0.90 0.96 1.04 1.15 1.09 0.99 0.86 0.71 0.71 0.69 0.76 0.85 0.88 0.82
0.67 0.72 0.75 0.77 0.81 0.85 0.83 0.82 0.85 0.85 0.85 0.86 0.85 0.86 0.85 0.80 0.80 0.86 0.90 0.91 0.88 0.84 0.81 0.85 0.99 1.13 1.16 1.16 1.11 1.06 1.07 1.03 0.95 0.90 0.83 0.73 0.68 0.69
0.65 0.70 0.70 0.70 0.76 0.79 0.75 0.73 0.78 0.83 0.85 0.86 0.84 0.82 0.81 0.78 0.76 0.81 0.86 0.89 0.90 0.91 0.93 0.99 1.04 1.10 1.14 1.13 1.18 1.19 1.14 1.12 1.11 1.07 0.96 0.77 0.56 0.47

GEFSNE_prec_meanprecacc_132.txt.gz
Total_Precipitation_Accumulation
1.49 1.58 1.51 1.48 1.50 1.50 1.61 1.70 1.64 1.44 1.26 1.18 1.08 0.95 0.92 0.90 0.88 0.87 0.84 0.75 0.65 0.60 0.56 0.54 0.57 0.60 0.69 0.85 1.02 1.19 1.30 1.38 1.44 1.50 1.58 1.69 1.79 1.93
1.29 1.36 1.42 1.45 1.58 1.54 1.60 1.68 1.73 1.64 1.34 1.26 1.18 0.97 1.02 0.80 0.78 0.81 0.82 0.72 0.57 0.51 0.49 0.49 0.51 0.54 0.56 0.62 0.73 0.87 1.03 1.13 1.22 1.30 1.32 1.34 1.36 1.44
0.97 1.02 1.07 1.16 1.30 1.34 1.42 1.49 1.61 1.66 1.40 1.35 1.48 1.36 1.32 1.10 0.93 0.86 0.72 0.68 0.61 0.51 0.45 0.43 0.44 0.48 0.54 0.56 0.57 0.63 0.75 0.86 0.95 1.07 1.21 1.31 1.34 1.37
0.83 0.85 0.82 0.91 1.07 1.13 1.22 1.33 1.50 1.69 1.54 1.46 1.61 1.65 1.56 1.37 1.24 1.06 0.79 0.64 0.67 0.63 0.48 0.42 0.41 0.44 0.51 0.55 0.52 0.52 0.57 0.63 0.68 0.76 0.90 1.02 1.14 1.25
0.61 0.60 0.60 0.68 0.81 0.94 1.08 1.14 1.26 1.57 1.64 1.52 1.56 1.80 1.79 1.62 1.57 1.31 1.12 1.01 0.75 0.69 0.56 0.46 0.43 0.43 0.48 0.56 0.57 0.54 0.52 0.53 0.56 0.62 0.74 0.89 0.98 1.05
0.50 0.43 0.42 0.52 0.65 0.77 0.88 0.99 1.10 1.27 1.47 1.54 1.54 1.76 1.86 1.76 1.85 1.65 1.41 1.25 1.02 0.80 0.71 0.53 0.47 0.49 0.49 0.52 0.57 0.60 0.61 0.60 0.61 0.68 0.74 0.80 0.91 1.00
0.50 0.40 0.36 0.39 0.46 0.57 0.63 0.76 0.91 1.06 1.18 1.36 1.48 1.64 1.86 1.87 1.75 1.73 1.56 1.40 1.30 1.18 1.14 0.82 0.55 0.48 0.47 0.50 0.56 0.64 0.71 0.74 0.76 0.83 0.92 0.98 1.01 1.05
0.48 0.44 0.38 0.34 0.33 0.38 0.44 0.51 0.60 0.72 0.90 1.11 1.25 1.39 1.62 1.82 1.80 1.83 1.74 1.51 1.40 1.33 1.39 1.40 1.08 0.82 0.66 0.47 0.47 0.56 0.70 0.82 0.86 0.92 1.00 1.14 1.27 1.26
0.44 0.44 0.33 0.28 0.29 0.29 0.31 0.35 0.42 0.44 0.52 0.75 0.91 0.97 1.14 1.42 1.72 1.86 1.93 1.78 1.59 1.56 1.57 1.69 1.77 1.51 1.03 0.71 0.61 0.54 0.62 0.75 0.83 0.91 1.00 1.05 1.22 1.39
0.42 0.40 0.37 0.32 0.32 0.35 0.38 0.38 0.35 0.34 0.34 0.39 0.50 0.69 0.84 1.08 1.44 1.65 1.89 2.06 1.95 1.86 1.81 1.90 1.99 2.20 1.76 1.20 0.96 0.75 0.70 0.75 0.83 0.89 0.96 1.06 1.14 1.24
0.43 0.40 0.38 0.37 0.32 0.27 0.34 0.39 0.35 0.33 0.30 0.33 0.38 0.53 0.71 0.85 1.13 1.47 1.72 1.84 1.91 1.99 1.98 2.04 2.04 2.18 2.50 2.09 1.41 1.00 0.79 0.73 0.77 0.84 0.90 1.02 1.09 1.10
0.54 0.53 0.41 0.32 0.30 0.27 0.29 0.35 0.34 0.32 0.34 0.33 0.38 0.43 0.51 0.65 0.85 1.12 1.33 1.50 1.55 1.69 1.65 1.59 1.63 1.76 2.22 2.53 2.19 1.57 1.11 0.90 0.78 0.76 0.79 0.89 1.01 0.93
0.56 0.58 0.52 0.37 0.27 0.24 0.26 0.32 0.31 0.35 0.44 0.45 0.45 0.50 0.59 0.65 0.71 0.90 1.14 1.32 1.38 1.27 1.14 1.23 1.40 1.49 1.56 1.87 2.12 2.08 1.70 1.35 1.12 0.96 0.89 0.87 0.92 0.92
0.68 0.66 0.63 0.48 0.34 0.26 0.23 0.26 0.28 0.30 0.39 0.45 0.46 0.48 0.54 0.59 0.65 0.80 0.99 1.15 1.27 1.29 1.21 1.24 1.38 1.42 1.48 1.56 1.68 1.82 1.88 1.74 1.56 1.42 1.32 1.26 1.11 1.06
0.78 0.76 0.73 0.56 0.45 0.36 0.29 0.29 0.30 0.33 0.38 0.43 0.43 0.44 0.49 0.57 0.67 0.83 0.98 1.12 1.19 1.17 1.15 1.18 1.21 1.19 1.26 1.35 1.38 1.38 1.50 1.65 1.67 1.62 1.61 1.57 1.44 1.30
0.81 0.75 0.70 0.64 0.53 0.49 0.43 0.37 0.34 0.40 0.43 0.45 0.48 0.51 0.58 0.68 0.76 0.80 0.91 1.03 1.18 1.16 1.11 1.13 1.14 1.17 1.12 1.02 0.99 0.93 0.95 1.10 1.30 1.42 1.57 1.74 1.78 1.72
0.89 0.84 0.80 0.75 0.68 0.65 0.63 0.59 0.54 0.56 0.56 0.58 0.62 0.63 0.64 0.70 0.79 0.85 0.92 0.94 0.98 1.04 1.08 1.13 1.21 1.24 1.19 1.11 1.01 0.88 0.83 0.78 0.84 1.07 1.32 1.61 1.70 1.56
0.80 0.85 0.85 0.82 0.76 0.74 0.76 0.74 0.71 0.71 0.72 0.73 0.73 0.73 0.70 0.72 0.81 0.93 1.01 0.99 0.92 0.93 1.01 1.07 1.24 1.39 1.43 1.29 0.99 0.85 0.84 0.80 0.79 0.89 1.01 1.10 1.17 1.11
0.74 0.83 0.80 0.81 0.80 0.81 0.82 0.78 0.77 0.78 0.82 0.83 0.79 0.80 0.80 0.81 0.84 0.93 1.02 1.03 0.96 0.95 1.04 1.15 1.21 1.25 1.21 1.10 0.99 0.75 0.71 0.72 0.80 0.92 0.95 0.88 0.80 0.74
0.73 0.79 0.79 0.80 0.82 0.85 0.86 0.83 0.84 0.87 0.90 0.90 0.87 0.86 0.87 0.87 0.89 0.92 0.98 1.02 0.99 0.98 1.04 1.12 1.10 1.05 0.98 0.89 0.86 0.81 0.64 0.68 0.71 0.78 0.86 0.86 0.78 0.67
0.77 0.80 0.80 0.79 0.82 0.87 0.88 0.87 0.89 0.88 0.86 0.89 0.89 0.89 0.86 0.86 0.90 0.92 0.97 1.03 1.00 0.95 0.90 0.88 0.92 0.99 1.08 1.19 1.11 1.00 0.87 0.73 0.72 0.71 0.78 0.86 0.88 0.83
0.68 0.73 0.76 0.78 0.82 0.86 0.84 0.83 0.86 0.86 0.86 0.87 0.87 0.88 0.88 0.84 0.84 0.90 0.94 0.96 0.92 0.88 0.84 0.87 1.01 1.17 1.21 1.20 1.13 1.07 1.08 1.04 0.96 0.92 0.85 0.75 0.70 0.70
0.67 0.72 0.71 0.72 0.77 0.80 0.77 0.75 0.79 0.85 0.87 0.88 0.88 0.85 0.85 0.82 0.81 0.86 0.91 0.94 0.94 0.96 0.97 1.02 1.06 1.13 1.17 1.17 1.21 1.21 1.15 1.13 1.12 1.08 0.97 0.78 0.56 0.47